[[{"header":{"parameterUnit":"m.s-1","parameterCategory":1,"la1":30.2991,"la2":30.254,"lo1":-89.0895,"lo2":-89.0444,"dx":0.0017,"dy":0.0017,"nx":28,"ny":28,"refTime":"2023-01-23T03:00:00:Z","depth":0,"parameterNumber":2,"parameterNumberName":"U-component_of_WINDS"},"data":[0,0,0,0,0,0,0,0,0,0,0,0,0,0,0,0,0,0,0,0,0,0,0,0,0,0,0,0,0,0,0,0,0,0,0,0,0,0,0,0,0,0,0,0,0,0,0,0,0,0,0,0,0,0,0,0,0,0,-0.1406,-0.1406,0,-0.1404,-0.1404,-0.1404,-0.1385,-0.1385,-0.1384,-0.1384,-0.1383,-0.1384,-0.1384,0,0,0,0,0,0,0,0,0,0,0,0,0,-0.1394,-0.1394,-0.1406,-0.1406,-0.1406,-0.1404,-0.1404,-0.1404,-0.1385,-0.1385,-0.1384,-0.1384,-0.1383,-0.1384,-0.1384,0,0,0,0,0,0,0,0,0,0,0,0,0,-0.1396,-0.1395,-0.1406,-0.1396,-0.1395,-0.1404,-0.1404,-0.1404,-0.1385,-0.1385,-0.1384,-0.1383,-0.1383,-0.1383,-0.1384,-0.1402,0,0,-0.1386,-0.1386,0,0,0,0,0,0,0,0,-0.1396,-0.1397,-0.1398,-0.1397,-0.1396,-0.1394,-0.1399,-0.1403,-0.1386,-0.1389,-0.1384,-0.1383,-0.1387,-0.1388,-0.1389,-0.1402,-0.1402,-0.1386,-0.1386,-0.1387,-0.1387,0,0,0,0,0,0,0,-0.1396,-0.1397,-0.1405,-0.1398,-0.1397,-0.1392,-0.1392,-0.14,-0.1392,-0.1389,-0.1388,-0.1387,-0.1387,-0.1388,-0.1389,-0.1402,-0.1386,-0.1387,-0.1387,-0.1387,-0.1429,-0.143,0,0,0,0,0,0,-0.1397,-0.1397,-0.1405,-0.1405,-0.1394,-0.1393,-0.1393,-0.1395,-0.1392,-0.1391,-0.1388,-0.1387,-0.1388,-0.1388,-0.1389,-0.1409,-0.1387,-0.1387,-0.1388,-0.1428,-0.1429,-0.143,0,0,0,0,0,0,-0.1397,-0.1398,-0.1405,-0.1401,-0.1401,-0.1394,-0.1397,-0.1396,-0.1397,-0.1392,-0.139,-0.1391,-0.1387,-0.1388,-0.1399,-0.1409,-0.1388,-0.1388,-0.1427,-0.1429,-0.143,-0.1451,0,0,0,0,0,0,-0.1397,-0.1398,-0.1405,-0.1401,-0.1402,-0.1416,-0.1398,-0.1396,-0.1398,-0.1396,-0.1394,-0.1393,-0.1387,-0.1398,-0.1399,-0.141,-0.1389,-0.1427,-0.1428,-0.1429,-0.1449,-0.1453,-0.1456,0,0,0,0,0,-0.1396,-0.1412,-0.1406,-0.1407,-0.141,-0.1416,-0.1417,-0.1408,-0.1399,-0.1406,-0.1402,-0.1393,-0.1407,-0.1399,-0.1401,-0.1411,-0.1426,-0.1428,-0.1429,-0.1448,-0.1452,-0.1456,0,0,0,0,0,0,-0.1418,-0.1411,-0.1404,-0.1419,-0.1418,-0.1413,-0.1422,-0.1413,-0.1416,-0.1414,-0.1404,-0.1404,-0.1416,-0.1414,-0.1405,-0.1428,-0.1415,-0.1417,-0.1429,-0.1433,-0.1436,-0.1436,-0.1389,0,0,0,0,0,-0.1425,-0.143,-0.1423,-0.1437,-0.1437,-0.1429,-0.1432,-0.1425,-0.1424,-0.1424,-0.1421,-0.1421,-0.1425,-0.1429,-0.1433,-0.1448,-0.1448,-0.1456,-0.1459,-0.1462,-0.1464,-0.1472,-0.1476,-0.1435,-0.1435,-0.1435,0,0,-0.1438,-0.1435,-0.1439,-0.1441,-0.144,-0.1446,-0.1429,-0.1436,-0.1441,-0.1426,-0.1436,-0.1433,-0.1432,-0.1446,-0.1451,-0.1445,-0.1475,-0.1464,-0.1466,-0.1467,-0.1474,-0.1478,-0.1482,-0.1436,-0.1436,-0.1436,0,0,-0.1466,-0.1464,-0.1475,-0.1473,-0.1471,-0.1466,-0.1468,-0.1464,-0.1462,-0.1471,-0.146,-0.1465,-0.1473,-0.1472,-0.1473,-0.1499,-0.149,-0.15,-0.1517,-0.1525,-0.1528,-0.1531,-0.154,-0.1543,-0.1502,-0.1502,-0.1502,0,-0.1484,-0.1492,-0.1481,-0.1489,-0.149,-0.1475,-0.1486,-0.1485,-0.1485,-0.1486,-0.1478,-0.1487,-0.1485,-0.1498,-0.1504,-0.1505,-0.1508,-0.1501,-0.1528,-0.1531,-0.1533,-0.1542,-0.1545,-0.1503,-0.1503,-0.1503,-0.1503,0,-0.1513,-0.1519,-0.1528,-0.1527,-0.1529,-0.1538,-0.1529,-0.1532,-0.1525,-0.152,-0.1529,-0.1526,-0.1529,-0.1531,-0.1525,-0.1543,-0.1539,-0.153,-0.1517,-0.1538,-0.1547,-0.155,-0.1505,-0.1505,-0.1504,-0.1504,0,0,-0.1557,-0.1548,-0.1552,-0.1551,-0.1547,-0.1551,-0.1559,-0.1561,-0.1564,-0.1563,-0.157,-0.1576,-0.1567,-0.1568,-0.1561,-0.1568,-0.1588,-0.1557,-0.1557,-0.1564,-0.1607,-0.1615,-0.1619,-0.1582,-0.1582,-0.1583,-0.1608,0,-0.1584,-0.1597,-0.1587,-0.1602,-0.1607,-0.1592,-0.1599,-0.1597,-0.1592,-0.1596,-0.1591,-0.1595,-0.1583,-0.1583,-0.1589,-0.1584,-0.1597,-0.1582,-0.1588,-0.1588,-0.159,-0.1623,-0.1632,-0.1656,-0.1611,-0.1611,-0.1612,0,-0.1618,-0.1618,-0.1633,-0.1627,-0.1629,-0.1635,-0.1636,-0.1639,-0.1636,-0.1632,-0.1632,-0.1623,-0.163,-0.1616,-0.1626,-0.1616,-0.1618,-0.1615,-0.1616,-0.1617,-0.1602,-0.1626,-0.1663,-0.1667,-0.1616,-0.1616,-0.1616,0,-0.1649,-0.1653,-0.1662,-0.1662,-0.1655,-0.1659,-0.1657,-0.1653,-0.1654,-0.1654,-0.1655,-0.1656,-0.1657,-0.1658,-0.1649,-0.164,-0.166,-0.1645,-0.1657,-0.1657,-0.1663,-0.1663,-0.1702,-0.1663,-0.1663,-0.1662,-0.1662,0,-0.1681,-0.1691,-0.1676,-0.1682,-0.1692,-0.168,-0.1691,-0.1687,-0.1683,-0.1688,-0.1675,-0.168,-0.1667,-0.1671,-0.1664,-0.1673,-0.1673,-0.167,-0.1668,-0.1672,-0.1672,-0.1674,-0.1672,-0.1663,-0.1663,-0.1663,-0.1663,0,-0.1718,-0.1708,-0.1717,-0.1709,-0.1707,-0.1715,-0.1708,-0.1713,-0.1707,-0.1713,-0.1714,-0.1704,-0.1707,-0.1698,-0.17,-0.1695,-0.1708,-0.1703,-0.1709,-0.1708,-0.1721,-0.172,-0.1762,-0.1767,-0.1724,-0.1725,-0.1725,0,-0.1739,-0.1747,-0.1739,-0.1741,-0.1738,-0.1742,-0.1742,-0.173,-0.1732,-0.1728,-0.1734,-0.1735,-0.1736,-0.1742,-0.1735,-0.1736,-0.1732,-0.1746,-0.1732,-0.1735,-0.1733,-0.1733,-0.1733,-0.175,-0.175,-0.1751,-0.1751,0,-0.1779,-0.1773,-0.1775,-0.1774,-0.1776,-0.1775,-0.1773,-0.1776,-0.1762,-0.1764,-0.1767,-0.1768,-0.1769,-0.1771,-0.177,-0.1767,-0.1757,-0.1755,-0.1758,-0.1763,-0.1766,-0.1765,-0.1718,-0.1755,-0.1755,-0.1754,-0.1754,-0.1754,-0.1809,-0.1815,-0.181,-0.1812,-0.1809,-0.1807,-0.1811,-0.1805,-0.1806,-0.1806,-0.1798,-0.1803,-0.1798,-0.1796,-0.1794,-0.1797,-0.179,-0.1794,-0.1796,-0.1797,-0.1799,-0.1764,-0.1797,-0.1796,-0.1796,-0.1796,-0.1796,0,-0.1849,-0.1844,-0.1846,-0.1843,-0.1845,-0.1834,-0.1831,-0.1833,-0.1836,-0.1833,-0.1834,-0.1836,-0.1837,-0.183,-0.183,-0.1834,-0.1829,-0.1834,-0.1835,-0.1834,-0.1805,-0.1803,-0.1838,-0.1838,-0.1838,-0.1838,-0.1838,-0.1838,-0.187,-0.1878,-0.1872,-0.1878,-0.1874,-0.1877,-0.1876,-0.1874,-0.1872,-0.1875,-0.1876,-0.187,-0.1865,-0.1864,-0.1865,-0.1863,-0.1864,-0.1871,-0.1867,-0.184,-0.1836,-0.1832,-0.183,-0.1871,-0.1871,-0.1896,-0.1896,-0.1896]},{"header":{"parameterUnit":"m.s-1","parameterCategory":1,"la1":30.2991,"la2":30.254,"lo1":-89.0895,"lo2":-89.0444,"dx":0.0017,"dy":0.0017,"nx":28,"ny":28,"refTime":"2023-01-23T03:00:00:Z","depth":0,"parameterNumber":3,"parameterNumberName":"V-component_of_WINDS"},"data":[0,0,0,0,0,0,0,0,0,0,0,0,0,0,0,0,0,0,0,0,0,0,0,0,0,0,0,0,0,0,0,0,0,0,0,0,0,0,0,0,0,0,0,0,0,0,0,0,0,0,0,0,0,0,0,0,0,0,-5.9987,-5.9989,0,-6.0097,-6.0098,-6.0099,-6.0068,-6.0066,-6.0063,-6.0061,-6.0167,-6.0171,-6.0176,0,0,0,0,0,0,0,0,0,0,0,0,0,-5.9745,-5.9749,-5.9987,-5.9989,-5.999,-6.0097,-6.0098,-6.01,-6.0068,-6.0066,-6.0063,-6.006,-6.0165,-6.0171,-6.0177,0,0,0,0,0,0,0,0,0,0,0,0,0,-5.9852,-5.9751,-5.9987,-5.9987,-5.9989,-6.0096,-6.0098,-6.01,-6.0069,-6.0065,-6.0062,-6.0059,-6.0163,-6.017,-6.0177,-6.029,0,0,-6.02,-6.0203,0,0,0,0,0,0,0,0,-5.9846,-5.9861,-5.9986,-5.9988,-5.9989,-6.0065,-6.0051,-6.0163,-6.007,-6.0038,-6.0061,-6.0057,-6.0135,-6.0145,-6.0172,-6.0295,-6.0299,-6.02,-6.0205,-6.0208,-6.021,0,0,0,0,0,0,0,-5.9838,-5.9856,-6.003,-5.9988,-5.999,-5.998,-5.9992,-6.0072,-6.0104,-6.0041,-6.0039,-6.0052,-6.0135,-6.0165,-6.0174,-6.0301,-6.02,-6.0207,-6.0211,-6.0214,-6.0521,-6.0525,0,0,0,0,0,0,-5.9831,-5.985,-6.0027,-6.0034,-5.9908,-5.9987,-6.0,-6.0044,-6.0103,-6.0109,-6.0055,-6.0051,-6.0154,-6.0166,-6.0178,-6.0314,-6.0208,-6.0215,-6.0219,-6.0517,-6.0522,-6.0526,0,0,0,0,0,0,-5.9826,-5.9847,-6.0022,-5.9941,-5.9963,-5.9995,-6.0045,-6.0048,-6.0078,-6.0114,-6.0119,-6.008,-6.0152,-6.0168,-6.0263,-6.0317,-6.0218,-6.0225,-6.0513,-6.0519,-6.0524,-6.0587,0,0,0,0,0,0,-5.9819,-5.9845,-5.9889,-5.9943,-5.9968,-6.0107,-6.0048,-6.0053,-6.0092,-6.0087,-6.0139,-6.0144,-6.0151,-6.0252,-6.027,-6.0326,-6.0231,-6.0508,-6.0515,-6.0522,-6.058,-6.0594,-6.0606,0,0,0,0,0,-5.981,-5.9901,-5.9892,-5.9913,-6.0024,-6.0111,-6.0125,-6.0132,-6.0096,-6.014,-6.0163,-6.0143,-6.0309,-6.0262,-6.0282,-6.0341,-6.0505,-6.0513,-6.0522,-6.0574,-6.0591,-6.0606,0,0,0,0,0,0,-5.985,-5.9908,-5.9898,-6.001,-6.0056,-6.0105,-6.0161,-6.015,-6.0205,-6.0198,-6.0203,-6.0215,-6.0313,-6.0336,-6.0283,-6.0453,-6.0401,-6.0414,-6.0434,-6.0451,-6.0463,-6.0456,-6.0237,0,0,0,0,0,-5.9873,-5.9941,-5.9986,-6.008,-6.0104,-6.0129,-6.0167,-6.0169,-6.0216,-6.0234,-6.0264,-6.0309,-6.0371,-6.0412,-6.0471,-6.0583,-6.0594,-6.0633,-6.0646,-6.0657,-6.0668,-6.0729,-6.0747,-6.0554,-6.0554,-6.0554,0,0,-5.9919,-5.9958,-6.0,-6.0089,-6.0125,-6.0194,-6.0145,-6.0219,-6.027,-6.0245,-6.0338,-6.0361,-6.0411,-6.0516,-6.0563,-6.0538,-6.0724,-6.0667,-6.0675,-6.0681,-6.074,-6.0758,-6.0774,-6.0559,-6.0558,-6.0558,0,0,-6.0038,-6.0075,-6.0157,-6.0195,-6.0252,-6.0268,-6.0288,-6.034,-6.0355,-6.0449,-6.0432,-6.0491,-6.0598,-6.0635,-6.0667,-6.0802,-6.0785,-6.0821,-6.0888,-6.0948,-6.0963,-6.0977,-6.1025,-6.1043,-6.0831,-6.0832,-6.0832,0,-6.0087,-6.0192,-6.02,-6.0278,-6.0317,-6.03,-6.0383,-6.0419,-6.049,-6.0517,-6.0489,-6.0624,-6.0656,-6.0769,-6.0803,-6.0829,-6.0852,-6.0815,-6.0961,-6.0975,-6.0987,-6.1034,-6.1052,-6.0836,-6.0835,-6.0835,-6.0834,0,-6.025,-6.0323,-6.0382,-6.0456,-6.0502,-6.0581,-6.06,-6.0645,-6.0644,-6.0662,-6.0757,-6.0796,-6.0863,-6.089,-6.0888,-6.1004,-6.0987,-6.096,-6.0908,-6.101,-6.1053,-6.1071,-6.0841,-6.084,-6.0839,-6.0838,0,0,-6.0396,-6.0475,-6.0497,-6.0531,-6.0592,-6.0648,-6.0726,-6.0795,-6.0833,-6.0883,-6.0948,-6.104,-6.1016,-6.1053,-6.1055,-6.1108,-6.1213,-6.1074,-6.1076,-6.1099,-6.1343,-6.1364,-6.1384,-6.1202,-6.1205,-6.1208,-6.1339,0,-6.0521,-6.0663,-6.0673,-6.0799,-6.0867,-6.0853,-6.0921,-6.0965,-6.0985,-6.1043,-6.1063,-6.1129,-6.1092,-6.1115,-6.1166,-6.1189,-6.1262,-6.118,-6.1262,-6.1265,-6.1251,-6.1407,-6.1428,-6.155,-6.1356,-6.1359,-6.1361,0,-6.0686,-6.0745,-6.0879,-6.0932,-6.0961,-6.1022,-6.1087,-6.1143,-6.1192,-6.1203,-6.1246,-6.124,-6.1319,-6.1265,-6.1373,-6.1317,-6.1351,-6.1368,-6.1372,-6.1381,-6.1319,-6.142,-6.1589,-6.1608,-6.1388,-6.1386,-6.1384,0,-6.0781,-6.0893,-6.0988,-6.1017,-6.1081,-6.1125,-6.1153,-6.12,-6.1241,-6.1296,-6.1322,-6.1385,-6.1419,-6.1467,-6.1478,-6.1437,-6.1587,-6.1533,-6.1597,-6.1597,-6.1629,-6.1627,-6.1807,-6.165,-6.165,-6.1649,-6.1649,0,-6.092,-6.1002,-6.1032,-6.109,-6.1182,-6.1193,-6.1283,-6.1308,-6.135,-6.1412,-6.1402,-6.1459,-6.1471,-6.1531,-6.1539,-6.1628,-6.1643,-6.1653,-6.1655,-6.1655,-6.1654,-6.1677,-6.1669,-6.1654,-6.1653,-6.1652,-6.1651,0,-6.1041,-6.1064,-6.1167,-6.1221,-6.1236,-6.1302,-6.1347,-6.1402,-6.1421,-6.1499,-6.1518,-6.1547,-6.1617,-6.1633,-6.1715,-6.1721,-6.1827,-6.1819,-6.1811,-6.1811,-6.1874,-6.1868,-6.2076,-6.2104,-6.1928,-6.193,-6.1931,0,-6.1128,-6.1192,-6.1254,-6.1296,-6.1328,-6.1395,-6.1438,-6.145,-6.1495,-6.1557,-6.1605,-6.1674,-6.173,-6.1842,-6.1869,-6.1932,-6.1927,-6.1995,-6.1936,-6.1934,-6.1929,-6.1925,-6.1932,-6.2007,-6.2009,-6.201,-6.2011,0,-6.1281,-6.129,-6.1354,-6.1422,-6.1473,-6.1526,-6.1577,-6.1611,-6.1631,-6.1681,-6.1754,-6.1798,-6.1884,-6.1952,-6.2016,-6.2042,-6.203,-6.203,-6.2048,-6.2049,-6.2042,-6.2048,-6.1843,-6.2025,-6.2024,-6.2023,-6.2022,-6.2021,-6.1389,-6.1446,-6.1499,-6.157,-6.161,-6.1658,-6.1713,-6.174,-6.1802,-6.1875,-6.1878,-6.1957,-6.2005,-6.209,-6.2121,-6.2182,-6.216,-6.2186,-6.2193,-6.22,-6.2206,-6.2032,-6.2193,-6.2193,-6.2192,-6.2192,-6.2192,0,-6.1542,-6.1576,-6.1642,-6.1715,-6.177,-6.1756,-6.1812,-6.1859,-6.193,-6.1977,-6.2033,-6.2117,-6.2184,-6.2217,-6.2283,-6.2326,-6.2322,-6.2343,-6.234,-6.2346,-6.2221,-6.2199,-6.2345,-6.2345,-6.2345,-6.2345,-6.2345,-6.2345,-6.1629,-6.1724,-6.174,-6.1855,-6.1887,-6.1967,-6.2001,-6.2044,-6.2082,-6.2178,-6.2234,-6.2256,-6.2297,-6.2367,-6.2427,-6.2435,-6.2459,-6.2484,-6.2488,-6.2371,-6.2355,-6.234,-6.232,-6.2489,-6.2489,-6.2609,-6.261,-6.2611]}]]